AirNav   Air Wisconsin Up To $57,000 Bonus
 
 571 users online  

38WA Blakely Island Airport
Blakely Island, Washington, USA

GOING TO BLAKELY ISLAND?


FAA INFORMATION EFFECTIVE 11 AUGUST 2022

Location

FAA Identifier: 38WA
Lat/Long: 48-34-44.3700N 122-49-34.6470W
48-34.739500N 122-49.577450W
48.5789917,-122.8262908
(estimated)
Elevation: 66 ft. / 20.1 m (surveyed)
Variation: 21E (1985)
Time zone: UTC -7 (UTC -8 during Standard Time)
Zip code: 98222

Airport Operations

Airport use: Private use. Permission required prior to landing
Activation date: 01/1948
Control tower: no
ARTCC: SEATTLE CENTER
FSS: SEATTLE FLIGHT SERVICE STATION
Attendance: CONTINUOUS
Wind indicator: lighted
Segmented circle: no
Lights: ACTVT MIRL RY 01/19 - 122.9.

Airport Communications

WX AWOS-3 at ORS (8 nm NW): 135.425 (360-376-6045)
WX ASOS at FHR (9 nm SW): 135.675 (360-378-8491)
WX ASOS at NUW (15 nm SE): PHONE 360-257-8813
WX ASOS at BLI (17 nm NE): PHONE 360-671-8688
WX AWOS-3 at BVS (17 nm E): 121.125 (360-757-7767)
  • MULTICOM FREQ 122.9.

Nearby radio navigation aids

VOR radial/distance  VOR name  Freq  Var
CVVr330/20.5PENN COVE VOR/DME117.2019E
HUHr184/24.1WHATCOM VORTAC113.0020E
YYJr092/27.6VICTORIA VOR/DME113.7017E
YVRr140/32.5VANCOUVER VOR/DME115.9017E

 
NDB name  Hdg/Dist  Freq  Var  ID
FRIDAY HARBOR046/8.828417EFHR ..-. .... .-.
SKAGIT/BAY VIEW276/17.524016EBVS -... ...- ...
EDIZ HOOK024/35.033817ENOW -. --- .--

Airport Services

Runway Information

Runway 1/19

Dimensions: 2200 x 40 ft. / 671 x 12 m
ADDNL 200 X 40' OVRNS & TURBC BOTH ENDS RWY 01/19.
Surface: asphalt
Runway edge lights: medium intensity
RUNWAY 1  RUNWAY 19
Traffic pattern: leftright
Displaced threshold: 252 ft.122 ft.
Obstructions: trees, 2000 ft. from runwaytrees, 2000 ft. from runway

Airport Ownership and Management from official FAA records

Ownership: Privately-owned
Owner: BLAKELY ISLAND MAINT COM
355 BLAKELY DR
BLAKELY ISLAND, WA 98222
Manager: DAN ROACH
466 MARINE DR
BLAKLEY ISLAND, WA 98222
Phone 206-276-3054
FONE 206-276-3054 DECRRR@GMAIL.COM. SEC CTC JOEL STEWARD 509-435-7591 360-375-6662.

Airport Operational Statistics

Aircraft based on the field: 11
Single engine airplanes: 5
Multi engine airplanes: 6
    

Additional Remarks

TREES BOTH SIDES OF RWY PENT TRSNL SFC.
WATCH FOR DEER ON RWY.
MIDDLE RY 01/19 HIGHER THAN EITHER END. CHECK ARPT TFC FM RUN-UP PAD CENTER OF FLD BEFORE TKOF.
FOR CD CTC WHIDBEY APCH AT 360-257-3310.

Instrument Procedures

There are no published instrument procedures at 38WA.

Some nearby airports with instrument procedures:

KORS - Orcas Island Airport (8 nm NW)
KFHR - Friday Harbor Airport (9 nm SW)
KNUW - Whidbey Island Naval Air Station (Ault Field) Airport (15 nm SE)
KBLI - Bellingham International Airport (17 nm NE)
KBVS - Skagit Regional Airport (17 nm E)
 
Loc | Ops | Rwys | IFR | FBO | Links
Com | Nav | Svcs | Stats | Notes
Area around 38WA (Blakely Island Airport)
 
Road maps at: MapQuest Bing Google
 
Aerial photo
WARNING: Photo may not be current or correct
Aerial photo of 38WA (Blakely Island Airport)
Photo by Domenick Venezia, 2003-09

Do you have a better or more recent aerial photo of Blakely Island Airport that you would like to share? If so, please send us your photo.

 
Sectional chart

 
Airport distance calculator
Flying to Blakely Island Airport? Find the distance to fly.

From to 38WA

Sunrise and sunset
Times for 13-Aug-2022
 Local
(UTC-7)
 Zulu
(UTC)
Morning civil twilight05:2812:28
Sunrise06:0313:03
Sunset20:2903:29
Evening civil twilight21:0404:04

Current date and time
Zulu (UTC)  13-Aug-2022 10:28:29
Local (UTC-7)  13-Aug-2022 03:28:29
 
METAR
KORS 
8nm N 
131015Z AUTO 18009KT 10SM OVC055 17/12 A3009 RMK AO2
KFHR 
9nm SW 
130953Z AUTO VRB04KT 10SM SCT040 OVC048 15/11 A3011 RMK AO2 SLP195 T01500106
CWEZ 
14nm NW 
131000Z AUTO 25008KT 15/11 RMK AO1 SLP186 T01480112 51016
KNUW 
15nm SE 
130953Z 16007KT 10SM BKN035 BKN041 17/11 A3015 RMK SLP209 T01670111
CWZO 
16nm W 
131000Z AUTO 21011KT RMK AO1
KBVS 
18nm E 
131015Z AUTO 00000KT 10SM OVC037 16/13 A3012 RMK A01
KBLI 
18nm NE 
130953Z AUTO 18008KT 10SM OVC049 17/14 A3010 RMK AO2 SLP197 T01720139
CWYJ 
20nm SW 
131000Z AUTO 19003KT 15/11 RMK AO1 SLP193 T01490106 53016
TAF
KNUW 
15nm SE 
1307/1407 VRB06KT 9999 VCSH FEW009 SCT015 BKN037 BKN080 QNH3001INS TEMPO 1312/1318 13009G14KT 9000 -RA BR SCT008 BKN025 OVC060 FM131800 VRB06KT 9999 VCSH FEW009 SCT020 BKN045 QNH3010INS TEMPO 1402/1406 FEW009 SCT020 BKN030 T11/1310Z T19/1321Z FS30190
KBLI 
18nm NE 
130535Z 1306/1406 19008KT P6SM BKN120 FM131000 17008KT P6SM BKN050 FM131400 17012KT P6SM BKN035 OVC050 FM131900 17008KT P6SM SCT035 BKN050 FM140000 18007KT P6SM BKN100
NOTAMs
Click for the latest NOTAMs
NOTAMs are issued by the DoD/FAA and will open in a separate window not controlled by AirNav.

 

 
 

Would you like to see your business listed on this page?

 If your business provides an interesting product or service to pilots, flight crews, aircraft, or users of the Blakely Island Airport, you should consider listing it here.  To start the listing process, click on the button below
 
Add a business
 

Other Pages about Blakely Island Airport

www.rockisland.com/...
 
Update a link
 
Copyright © AirNav, LLC. All rights reserved. Privacy Policy  Contact